AAY972 KPIE-KEYW

Flight info

Callsign AAY972
Flight time N/A
Altitude 31000
Route SABEE KRAKN1
Aircraft A319/M-SDE3FGHIRWY/LB1

Departure

Time 2026-04-27 21:21
Airport St. Petersburg Clearwater International Airport (KPIE)

Arrival

Time N/A
Airport Key West International Airport (KEYW)
Time Latitude Longitude Altitude Speed Heading
2026-04-27 21:17 27.90838 -82.68982 24 ft 9 kts 107°
2026-04-27 21:17 27.90773 -82.68948 24 ft 13 kts 166°
2026-04-27 21:17 27.90673 -82.68936 24 ft 16 kts 186°
2026-04-27 21:17 27.90552 -82.68928 24 ft 18 kts 165°
2026-04-27 21:18 27.90421 -82.68896 24 ft 20 kts 173°
2026-04-27 21:18 27.90276 -82.68868 24 ft 17 kts 171°
2026-04-27 21:18 27.90167 -82.68855 23 ft 17 kts 180°
2026-04-27 21:18 27.90034 -82.68864 21 ft 21 kts 184°
2026-04-27 21:19 27.89888 -82.68864 23 ft 21 kts 171°
2026-04-27 21:19 27.89743 -82.68831 24 ft 22 kts 168°
2026-04-27 21:19 27.89697 -82.68726 23 ft 18 kts 80°
2026-04-27 21:20 27.89701 -82.68699 22 ft 0 kts 80°
2026-04-27 21:20 27.89701 -82.68698 22 ft 1 kts 80°
2026-04-27 21:20 27.89706 -82.68666 20 ft 7 kts 80°
2026-04-27 21:20 27.89738 -82.68615 19 ft 10 kts 354°
2026-04-27 21:21 27.89832 -82.68633 20 ft 28 kts 352°
2026-04-27 21:21 27.90382 -82.68729 24 ft 128 kts 351°
2026-04-27 21:21 27.91417 -82.68898 509 ft 161 kts 352°
2026-04-27 21:21 27.92564 -82.68933 1430 ft 168 kts 13°
2026-04-27 21:22 27.93543 -82.68238 2419 ft 173 kts 50°
2026-04-27 21:22 27.93965 -82.66978 3217 ft 175 kts 89°
2026-04-27 21:22 27.93526 -82.65645 3729 ft 198 kts 135°